Regional Weather Roundup
Issued by NWS

Home | Current Version | Previous Version | Graphics & Text | Print | Product List | Glossary Off
Versions: 1 2 3 4 5 6 7 8 9 10 11 12 13 14 15 16 17 18 19 20 21 22 23 24 25 26 27 28 29 30 31 32 33 34 35 36 37 38 39 40 41 42 43 44 45 46 47 48 49 50

000
ASUS43 KTOP 151008
RWRKS

WEATHER ROUNDUP FOR KANSAS
NATIONAL WEATHER SERVICE GOODLAND KS
500 AM CDT TUE APR 15 2014

NOTE:  "FAIR" INDICATES FEW OR NO CLOUDS BELOW 12,000 FEET WITH NO
SIGNIFICANT WEATHER AND/OR OBSTRUCTIONS TO VISIBILITY.

KSZ001>006-013>018-027>032-041>047-151100-
NORTHWEST KANSAS

CITY           SKY/WX    TMP DP  RH WIND       PRES   REMARKS
GOODLAND       CLEAR     28  16  60 SW12      30.12F WCI  18
HAYS           CLEAR     23  14  68 W7        30.17F
HILL CITY      CLEAR     23  19  85 W3        30.17F
RUSSELL        CLEAR     19  13  77 SW7       30.16F
$$

KSZ061>065-074>080-084>089-151100-
SOUTHWEST KANSAS

CITY           SKY/WX    TMP DP  RH WIND       PRES   REMARKS
DODGE CITY     CLEAR     28  16  60 W6        30.18F
ELKHART          N/A     32  13  45 SW7         N/A
GARDEN CITY    CLEAR     24  18  77 W7        30.18F
GREAT BEND     CLEAR     25  10  54 CALM      30.19S
LIBERAL        CLEAR     25  18  74 W8        30.22F
PRATT          CLEAR     27  21  80 W10       30.20S WCI  17
$$

KSZ066>073-081>083-090>101-151100-
SOUTHEAST KANSAS

CITY           SKY/WX    TMP DP  RH WIND       PRES   REMARKS
CHANUTE        CLEAR     26  22  84 CALM      30.19S
COFFEYVILLE    CLEAR     26  24  92 CALM      30.20F
HUTCHINSON     CLEAR     25  17  72 NW8       30.20S
MEDICINE LODGE   N/A     29  19  66 N5        30.21S
NEWTON         CLEAR     28  16  59 NW7       30.21S
PARSONS        CLEAR     25  21  85 CALM      30.21S
WICHITA INTL   CLEAR     31  20  63 NW8       30.20S
WICHITA JABRA  CLEAR     32  19  58 W9        30.19S
WICHITA MCCONL CLEAR     34  20  57 NW8       30.20S
WINFIELD       CLEAR     27  18  69 CALM      30.21S
$$

KSZ007>012-019>026-033>040-048>060-102>105-151100-
NORTHEAST KANSAS

CITY           SKY/WX    TMP DP  RH WIND       PRES   REMARKS
CONCORDIA      CLEAR     27  22  81 W6        30.18S
EMPORIA        CLEAR     29  23  78 W3        30.18S
LAWRENCE       CLEAR     25  21  85 CALM      30.20S
MANHATTAN      CLEAR     25  22  88 CALM      30.19F
OLATHE IND     CLEAR     28  23  81 CALM      30.19S
OLATHE EXE     CLEAR     29  23  78 CALM      30.18S
SALINA         CLEAR     29  19  66 W5        30.20S
TOPEKA BILLARD CLEAR     30  25  81 CALM      30.20S
TOPEKA FORBES  CLEAR     28  23  81 CALM      30.18F
$$



USA.gov is the U.S. government's official web portal to all federal, state and local government web resources and services.